FW9243 Weather Reports


time (UTC)temp
F
wind
direction
speed
knots
gust
knots
rain 1hr
in
rain 24hr
in
rain mn
in
humidity
%
barometer
mb
20260906000803 72 53 0.9 1.7 0.00 0.00 0.00 74 1018.3
20260906000524 72 51 0.9 1.7 0.00 0.00 0.00 74 1019.1
20260906000304 72 63 0.9 1.7 0.00 0.00 0.00 73 1018.2
20260906000046 85 9 0.9 1.7 0.00 0.00 0.00 100 1019.8
20260906000022 73 68 0.9 1.7 0.00 0.00 0.00 73 1019.0
20260905235804 73 78 0.9 1.7 0.00 0.00 0.00 74 1018.3
20260905235526 73 269 0.0 1.7 0.00 0.00 0.00 75 1019.1
20260905235243 73 1 0.9 2.6 0.00 0.00 0.00 75 1019.2
20260905234803 73 104 0.0 1.7 0.00 0.00 0.00 74 1018.5
20260905234545 85 51 0.0 1.7 0.00 0.00 0.00 100 1020.0
20260905234523 74 56 0.9 2.6 0.00 0.00 0.00 74 1019.4
20260905234304 74 75 0.9 2.6 0.00 0.00 0.00 73 1018.6
20260905234021 74 63 0.9 1.7 0.00 0.00 0.00 71 1019.4
20260905233803 74 61 0.9 1.7 0.00 0.00 0.00 71 1018.6
20260905233524 74 35 0.0 0.9 0.00 0.00 0.00 71 1019.3
20260905233303 74 235 0.0 0.9 0.00 0.00 0.00 71 1018.7
20260905233103 85 0 0.0 0.9 0.00 0.00 0.00 100 1020.1
20260905233021 74 45 0.0 1.7 0.00 0.00 0.00 71 1019.4
20260905233009 74 1 0.9 2.6 0.00 0.00 0.00 71 1019.4
20260905232803 74 143 0.9 1.7 0.00 0.00 0.00 71 1018.6
20260905232510 74 72 0.9 2.6 0.00 0.00 0.00 70 1019.2
20260905232306 74 152 0.9 1.7 0.00 0.00 0.00 70 1018.4
20260905231804 74 71 0.9 1.7 0.00 0.00 0.00 70 1018.5
20260905231551 85 51 0.0 0.9 0.00 0.00 0.00 100 1020.0
20260905231522 74 35 0.9 1.7 0.00 0.00 0.00 71 1019.3
20260905231303 74 39 0.0 1.7 0.00 0.00 0.00 71 1018.6
20260905231022 74 45 0.0 2.6 0.00 0.00 0.00 71 1019.4
20260905230804 74 150 0.0 2.6 0.00 0.00 0.00 71 1018.7
20260905230523 74 89 0.9 2.6 0.00 0.00 0.00 71 1019.4
20260905230303 74 107 0.9 2.6 0.00 0.00 0.00 73 1018.6
20260905230048 85 137 0.0 0.9 0.00 0.00 0.00 100 1020.1
20260905230021 74 152 0.9 1.7 0.00 0.00 0.00 73 1019.4
20260905225803 75 225 0.9 1.7 0.00 0.00 0.00 72 1018.6
20260905225522 75 314 0.0 0.9 0.00 0.00 0.00 72 1019.4
20260905225305 75 133 0.0 0.9 0.00 0.00 0.00 71 1018.6
20260905225247 75 135 0.0 2.6 0.00 0.00 0.00 71 1019.4
20260905224803 75 148 0.9 1.7 0.00 0.00 0.00 72 1018.5
20260905224605 85 0 0.0 1.7 0.00 0.00 0.00 100 1020.0
20260905224522 75 89 0.9 2.6 0.00 0.00 0.00 72 1019.3
20260905224304 75 125 0.9 2.6 0.00 0.00 0.00 72 1018.4
20260905224246 74 152 0.9 1.7 0.00 0.00 0.00 72 1019.3
20260905223803 74 99 0.9 2.6 0.00 0.00 0.00 73 1018.4
20260905223522 74 124 0.9 1.7 0.00 0.00 0.00 73 1019.2
20260905223303 74 131 0.9 0.9 0.00 0.00 0.00 73 1018.5
20260905223245 74 135 0.0 1.7 0.00 0.00 0.00 74 1019.3
20260905223043 85 162 0.0 0.9 0.00 0.00 0.00 100 1020.0
20260905222803 75 125 0.0 0.9 0.00 0.00 0.00 74 1018.5
20260905222522 75 135 0.9 1.7 0.00 0.00 0.00 74 1019.2
20260905222306 75 149 0.9 1.7 0.00 0.00 0.00 74 1018.5
20260905222245 75 135 0.9 1.7 0.00 0.00 0.00 74 1019.3
20260905221543 85 51 0.9 1.7 0.00 0.00 0.00 100 1020.0
20260905221521 75 89 0.9 1.7 0.00 0.00 0.00 74 1019.3
20260905221303 74 163 0.9 1.7 0.00 0.00 0.00 74 1018.5
20260905221245 75 89 0.9 1.7 0.00 0.00 0.00 75 1019.3
20260905220804 75 119 0.9 1.7 0.00 0.00 0.00 75 1018.5
20260905220748 75 206 0.9 1.7 0.00 0.00 0.00 74 1019.3
20260905220302 75 161 0.9 1.7 0.00 0.00 0.00 75 1018.6
20260905220049 85 221 0.9 0.9 0.00 0.00 0.00 100 1020.1
20260905220020 75 178 0.9 1.7 0.00 0.00 0.00 76 1019.4
20260905215803 75 173 0.9 0.9 0.00 0.00 0.00 75 1018.7
20260905215523 75 178 0.0 0.9 0.00 0.00 0.00 76 1019.5
20260905215306 75 53 0.9 1.7 0.00 0.00 0.00 74 1018.7
20260905215244 75 45 0.0 0.9 0.00 0.00 0.00 74 1019.5
20260905214803 75 241 0.0 0.9 0.00 0.00 0.00 74 1018.7
20260905214544 85 0 0.0 1.7 0.00 0.00 0.00 100 1020.2
20260905214521 75 45 0.9 2.6 0.00 0.00 0.00 74 1019.4
20260905214303 75 148 0.0 1.7 0.00 0.00 0.00 74 1018.7
20260905214018 75 45 0.0 2.6 0.00 0.00 0.00 75 1019.5
20260905213803 75 115 0.9 2.6 0.00 0.00 0.00 75 1018.7
20260905213521 76 135 0.9 1.7 0.00 0.00 0.00 76 1019.6
20260905213303 76 145 0.9 1.7 0.00 0.00 0.00 76 1018.7
20260905213050 85 0 0.9 0.9 0.00 0.00 0.00 100 1020.2
20260905213019 76 178 0.0 1.7 0.00 0.00 0.00 76 1019.6
20260905212803 76 118 0.9 1.7 0.00 0.00 0.00 75 1018.9
20260905212520 76 269 0.0 1.7 0.00 0.00 0.00 74 1019.6
20260905212306 76 142 0.0 1.7 0.00 0.00 0.00 73 1018.8
20260905212018 76 45 0.9 1.7 0.00 0.00 0.00 72 1019.6
20260905211803 76 62 0.0 1.7 0.00 0.00 0.00 72 1018.8
20260905211540 85 0 0.0 1.7 0.00 0.00 0.00 100 1020.2
20260905211524 76 178 0.9 1.7 0.00 0.00 0.00 73 1019.5
20260905211303 77 204 0.9 1.7 0.00 0.00 0.00 73 1018.8
20260905211018 77 223 0.9 0.9 0.00 0.00 0.00 73 1019.6
20260905210803 77 216 0.9 1.7 0.00 0.00 0.00 73 1018.7
20260905210521 77 269 0.9 1.7 0.00 0.00 0.00 73 1019.5
20260905210303 77 216 0.0 1.7 0.00 0.00 0.00 72 1018.8
20260905210042 85 0 0.9 1.7 0.00 0.00 0.00 100 1020.3
20260905210018 77 45 0.0 1.7 0.00 0.00 0.00 71 1019.6
20260905205804 77 72 0.0 1.7 0.00 0.00 0.00 71 1018.9
20260905205743 77 45 0.0 1.7 0.00 0.00 0.00 71 1019.6
20260905205018 77 1 0.9 1.7 0.00 0.00 0.00 70 1019.5
20260905204803 77 181 0.9 2.6 0.00 0.00 0.00 69 1018.8
20260905204739 77 145 0.0 1.7 0.00 0.00 0.00 70 1019.5
20260905204547 85 164 0.0 1.7 0.00 0.00 0.00 100 1020.2
20260905204505 77 135 0.0 1.7 0.00 0.00 0.00 72 1019.6
20260905204303 77 174 0.9 1.7 0.00 0.00 0.00 72 1018.8
20260905203803 78 163 0.0 1.7 0.00 0.00 0.00 72 1018.8
20260905203519 78 178 0.9 1.7 0.00 0.00 0.00 72 1019.6
20260905203303 78 196 0.9 1.7 0.00 0.00 0.00 72 1018.9
20260905203042 85 51 0.9 0.9 0.00 0.00 0.00 100 1020.3
20260905203018 78 223 0.9 1.7 0.00 0.00 0.00 73 1019.6
20260905202803 78 200 0.9 1.7 0.00 0.00 0.00 73 1018.8
20260905202520 78 269 0.9 2.6 0.00 0.00 0.00 73 1019.6
20260905202306 78 127 0.9 1.7 0.00 0.00 0.00 73 1018.8
20260905202241 78 45 0.9 2.6 0.00 0.00 0.00 72 1019.5
20260905201803 78 50 0.9 1.7 0.00 0.00 0.00 70 1018.8
20260905201544 85 64 0.0 1.7 0.00 0.00 0.00 100 1020.2
20260905201518 78 51 0.0 1.7 0.00 0.00 0.00 69 1019.5
20260905201304 78 173 0.9 1.7 0.00 0.00 0.00 69 1018.8
20260905201017 78 161 0.9 1.7 0.00 0.00 0.00 68 1019.5
20260905200803 79 182 0.9 1.7 0.00 0.00 0.00 70 1018.6
20260905200524 79 135 0.0 0.9 0.00 0.00 0.00 71 1019.5
20260905200304 79 97 0.9 0.9 0.00 0.00 0.00 70 1018.6
20260905200048 85 0 0.0 0.9 0.00 0.00 0.00 100 1020.0
20260905200017 79 178 0.9 0.9 0.00 0.00 0.00 68 1019.3
20260905195519 79 89 0.9 1.7 0.00 0.00 0.00 62 1019.2
20260905195242 79 269 0.9 1.7 0.00 0.00 0.00 60 1019.2
20260905194742 79 135 0.9 1.7 0.00 0.00 0.00 56 1019.2
20260905194546 85 158 0.0 0.9 0.00 0.00 0.00 100 1019.9
20260905194304 79 67 0.9 1.7 0.00 0.00 0.00 61 1018.4
20260905194016 79 178 0.0 0.9 0.00 0.00 0.00 66 1019.2
20260905193803 78 305 0.0 0.9 0.00 0.00 0.00 63 1018.5
20260905193745 78 178 0.9 2.6 0.00 0.00 0.00 65 1019.3
20260905193303 79 175 0.9 1.7 0.00 0.00 0.00 65 1018.4
20260905193042 85 0 0.0 1.7 0.00 0.00 0.00 100 1019.9
20260905193018 79 178 0.9 2.6 0.00 0.00 0.00 67 1019.3
20260905192803 79 164 0.9 2.6 0.00 0.00 0.00 68 1018.5
20260905192518 79 142 1.7 1.7 0.00 0.00 0.00 71 1019.3
20260905192306 79 158 0.9 2.6 0.00 0.00 0.00 72 1018.4
20260905192017 79 145 0.9 1.7 0.00 0.00 0.00 71 1019.2
20260905191546 85 68 0.9 1.7 0.00 0.00 0.00 100 1019.7
20260905191518 80 72 1.7 1.7 0.00 0.00 0.00 70 1019.0
20260905191303 81 72 0.9 1.7 0.00 0.00 0.00 68 1017.8
20260905191016 81 68 1.7 1.7 0.00 0.00 0.00 64 1018.7
20260905190518 82 331 0.0 1.7 0.00 0.00 0.00 64 1018.6
20260905190303 82 153 0.0 1.7 0.00 0.00 0.00 63 1017.4
20260905190058 85 178 0.0 0.9 0.00 0.00 0.00 100 1019.0
20260905190016 82 1 0.0 1.7 0.00 0.00 0.00 64 1018.4
20260905185803 82 181 0.0 0.9 0.00 0.00 0.00 64 1017.3
20260905185516 82 206 0.9 1.7 0.00 0.00 0.00 63 1018.3
20260905185305 82 65 0.9 1.7 0.00 0.00 0.00 63 1017.2
20260905185015 83 63 0.9 1.7 0.00 0.00 0.00 62 1018.3
20260905184604 85 61 1.7 2.6 0.00 0.00 0.00 100 1019.0
20260905184517 83 54 0.9 2.6 0.00 0.00 0.00 61 1018.4
20260905184303 84 66 0.9 2.6 0.00 0.00 0.00 60 1017.3
20260905184016 85 54 0.9 2.6 0.00 0.00 0.00 59 1018.3
20260905183804 85 55 1.7 2.6 0.00 0.00 0.00 58 1017.2
20260905183518 86 28 0.9 1.7 0.00 0.00 0.00 56 1018.3
20260905183303 86 48 0.9 1.7 0.00 0.00 0.00 56 1017.1
20260905183043 85 0 0.0 0.9 0.00 0.00 0.00 100 1018.7
20260905183016 86 45 0.0 1.7 0.00 0.00 0.00 56 1018.2
20260905182803 86 134 0.0 1.7 0.00 0.00 0.00 55 1017.0
20260905182518 86 45 0.9 2.6 0.00 0.00 0.00 54 1018.0
20260905182305 86 74 0.9 2.6 0.00 0.00 0.00 51 1016.8
20260905182016 86 56 0.9 2.6 0.00 0.00 0.00 51 1017.8
20260905181803 86 335 0.9 1.7 0.00 0.00 0.00 51 1016.8
20260905181546 85 178 0.0 1.7 0.00 0.00 0.00 100 1018.2
20260905181517 86 324 0.9 1.7 0.00 0.00 0.00 50 1017.8
20260905181020 86 45 0.0 2.6 0.00 0.00 0.00 48 1017.9
20260905180803 86 305 0.0 0.9 0.00 0.00 0.00 47 1016.9
20260905180516 86 206 0.9 2.6 0.00 0.00 0.00 47 1017.9
20260905180304 86 296 0.9 2.6 0.00 0.00 0.00 45 1016.9
20260905180048 85 221 0.0 0.9 0.00 0.00 0.00 100 1018.3
20260905180014 86 210 0.9 1.7 0.00 0.00 0.00 47 1017.8
20260905175803 86 213 0.0 1.7 0.00 0.00 0.00 47 1016.7
20260905175515 86 269 0.0 0.9 0.00 0.00 0.00 48 1017.8
20260905175306 86 12 0.0 0.9 0.00 0.00 0.00 48 1016.8
20260905175015 86 45 0.0 1.7 0.00 0.00 0.00 50 1017.8
20260905174803 86 217 0.0 1.7 0.00 0.00 0.00 49 1016.8
20260905174553 85 221 0.0 1.7 0.00 0.00 0.00 100 1018.2
20260905174517 86 296 0.9 2.6 0.00 0.00 0.00 48 1017.7
20260905174303 86 314 0.9 1.7 0.00 0.00 0.00 49 1016.6
20260905174015 86 241 0.9 2.6 0.00 0.00 0.00 50 1017.7
20260905173803 86 246 0.9 2.6 0.00 0.00 0.00 52 1016.5
20260905173516 86 223 0.9 1.7 0.00 0.00 0.00 56 1017.6
20260905173043 86 221 0.0 1.7 0.00 0.00 0.00 100 1017.9
20260905173014 86 241 0.9 1.7 0.00 0.00 0.00 55 1017.5
20260905172954 86 223 0.0 1.7 0.00 0.00 0.00 58 1017.4
20260905172305 86 169 0.0 0.9 0.00 0.00 0.00 59 1016.3
20260905172014 86 89 0.0 2.6 0.00 0.00 0.00 59 1017.2
20260905171803 86 182 0.0 2.6 0.00 0.00 0.00 59 1016.3
20260905171543 86 0 0.0 2.6 0.00 0.00 0.00 100 1017.7
20260905171514 86 135 0.9 3.5 0.00 0.00 0.00 57 1017.2
20260905171303 86 226 0.9 2.6 0.00 0.00 0.00 57 1016.1
20260905171014 86 257 0.9 3.5 0.00 0.00 0.00 56 1017.1
20260905170515 87 314 0.9 3.5 0.00 0.00 0.00 57 1017.1
20260905170303 87 272 0.9 2.6 0.00 0.00 0.00 56 1016.0
20260905170041 86 196 0.9 4.3 0.00 0.00 0.00 100 1017.6
20260905170013 87 223 0.9 4.3 0.00 0.00 0.00 56 1017.1
20260905165803 87 207 0.9 4.3 0.00 0.00 0.00 56 1016.1
20260905165737 87 216 1.7 4.3 0.00 0.00 0.00 56 1017.1
20260905165306 87 304 0.9 4.3 0.00 0.00 0.00 55 1016.2
20260905165013 87 314 1.7 4.3 0.00 0.00 0.00 56 1017.1
20260905164803 87 282 1.7 2.6 0.00 0.00 0.00 56 1016.1
20260905164544 87 215 0.0 2.6 0.00 0.00 0.00 100 1017.5
20260905164516 87 168 0.9 2.6 0.00 0.00 0.00 57 1017.0
20260905164303 87 246 0.9 2.6 0.00 0.00 0.00 57 1016.0
20260905164236 88 269 0.9 2.6 0.00 0.00 0.00 55 1016.9
20260905164217 87 317 1.7 2.6 0.00 0.00 0.00 55 1016.9
20260905163803 88 289 0.9 2.6 0.00 0.00 0.00 56 1015.9
20260905163303 88 243 0.9 2.6 0.00 0.00 0.00 54 1015.8
20260905163050 88 0 0.9 2.6 0.00 0.00 0.00 100 1017.4
20260905163013 88 285 0.9 3.5 0.00 0.00 0.00 54 1016.8
20260905162803 88 273 0.9 2.6 0.00 0.00 0.00 54 1015.8
20260905162514 88 223 0.9 3.5 0.00 0.00 0.00 52 1016.8
20260905162306 88 288 1.7 2.6 0.00 0.00 0.00 52 1015.8
20260905162012 89 314 0.9 3.5 0.00 0.00 0.00 51 1016.7
20260905161803 89 306 0.9 2.6 0.00 0.00 0.00 51 1015.7
20260905161549 88 300 1.7 3.5 0.00 0.00 0.00 100 1017.2
20260905161513 89 300 2.6 3.5 0.00 0.00 0.00 50 1016.6
20260905161303 89 312 1.7 4.3 0.00 0.00 0.00 51 1015.7
20260905161012 89 269 1.7 3.5 0.00 0.00 0.00 50 1016.6
20260905160803 89 321 1.7 2.6 0.00 0.00 0.00 50 1015.7
20260905160515 89 269 1.7 4.3 0.00 0.00 0.00 50 1016.6
20260905160045 88 296 1.7 4.3 0.00 0.00 0.00 100 1017.2
20260905160012 89 285 1.7 4.3 0.00 0.00 0.00 50 1016.6
20260905155803 89 318 1.7 2.6 0.00 0.00 0.00 50 1015.7
20260905155513 89 45 2.6 5.2 0.00 0.00 0.00 51 1016.6
20260905155012 90 348 3.5 5.2 0.00 0.00 0.00 50 1016.6
20260905154803 90 316 1.7 7.0 0.00 0.00 0.00 51 1015.8
20260905154553 90 9 1.7 3.5 0.00 0.00 0.00 100 1017.2
20260905154515 91 286 1.7 44.3 0.00 0.00 0.00 52 1016.7
20260905154303 91 272 1.7 2.6 0.00 0.00 0.00 51 1015.7
20260905154230 92 341 1.7 3.5 0.00 0.00 0.00 52 1016.7
20260905154210 91 23 3.5 44.3 0.00 0.00 0.00 51 1016.7
20260905153303 92 288 1.7 4.3 0.00 0.00 0.00 51 1015.8
20260905153041 91 0 0.9 3.5 0.00 0.00 0.00 100 1017.3
20260905153010 92 1 0.9 4.3 0.00 0.00 0.00 50 1016.8
20260905152803 92 282 1.7 2.6 0.00 0.00 0.00 50 1015.9
20260905152516 92 324 1.7 4.3 0.00 0.00 0.00 50 1016.8
20260905152306 92 299 1.7 4.3 0.00 0.00 0.00 49 1015.8
20260905152239 92 310 1.7 4.3 0.00 0.00 0.00 49 1016.7
20260905152006 93 303 2.6 4.3 0.00 0.00 0.00 48 1016.8
20260905151803 92 344 2.6 6.1 0.00 0.00 0.00 49 1015.8
20260905151547 92 303 1.7 5.2 0.00 0.00 0.00 100 1017.3
20260905151303 93 287 2.6 5.2 0.00 0.00 0.00 48 1015.9
20260905151011 93 341 2.6 4.3 0.00 0.00 0.00 50 1016.9
20260905150803 93 274 2.6 4.3 0.00 0.00 0.00 50 1015.9
20260905150513 93 298 1.7 3.5 0.00 0.00 0.00 51 1016.9
20260905150303 93 264 1.7 2.6 0.00 0.00 0.00 51 1015.9
20260905150046 93 309 0.9 3.5 0.00 0.00 0.00 100 1017.4
20260905150010 93 314 1.7 4.3 0.00 0.00 0.00 50 1016.9
20260905145803 93 283 1.7 4.3 0.00 0.00 0.00 50 1015.9
20260905145512 93 334 1.7 4.3 0.00 0.00 0.00 51 1016.9
20260905145306 93 274 1.7 6.1 0.00 0.00 0.00 50 1015.8
20260905145011 93 299 1.7 5.2 0.00 0.00 0.00 51 1016.9
20260905144803 93 320 1.7 6.1 0.00 0.00 0.00 50 1015.8
20260905144544 93 295 2.6 4.3 0.00 0.00 0.00 100 1017.4
20260905144511 94 319 3.5 6.1 0.00 0.00 0.00 50 1016.9
20260905144303 94 310 1.7 5.2 0.00 0.00 0.00 50 1015.9
20260905144012 94 331 2.6 6.1 0.00 0.00 0.00 49 1016.9
20260905143803 94 316 2.6 7.0 0.00 0.00 0.00 49 1015.9
20260905143737 94 321 1.7 5.2 0.00 0.00 0.00 51 1016.9
20260905143303 94 274 0.9 4.3 0.00 0.00 0.00 52 1016.0
20260905143049 94 332 1.7 3.5 0.00 0.00 0.00 100 1017.5
20260905143010 94 337 1.7 5.2 0.00 0.00 0.00 51 1017.0
20260905142803 94 277 1.7 5.2 0.00 0.00 0.00 51 1016.0
20260905142515 94 296 2.6 5.2 0.00 0.00 0.00 50 1017.0
20260905142305 94 292 1.7 4.3 0.00 0.00 0.00 51 1016.0
20260905142010 94 343 0.9 2.6 0.00 0.00 0.00 51 1017.0
20260905141803 94 292 0.9 2.6 0.00 0.00 0.00 52 1016.0
20260905141548 93 265 0.9 2.6 0.00 0.00 0.00 100 1017.6
20260905141510 94 314 1.7 3.5 0.00 0.00 0.00 50 1017.1
20260905141303 94 321 1.7 2.6 0.00 0.00 0.00 51 1016.1
20260905141009 94 327 1.7 3.5 0.00 0.00 0.00 51 1017.1
20260905140803 94 298 1.7 2.6 0.00 0.00 0.00 50 1016.1
20260905140510 94 269 1.7 3.5 0.00 0.00 0.00 52 1017.2
20260905140303 94 259 1.7 2.6 0.00 0.00 0.00 52 1016.1
20260905140047 93 319 0.9 1.7 0.00 0.00 0.00 100 1017.6
20260905140009 94 296 1.7 3.5 0.00 0.00 0.00 52 1017.2
20260905135803 93 283 1.7 2.6 0.00 0.00 0.00 53 1016.2
20260905135739 93 314 0.9 3.5 0.00 0.00 0.00 52 1017.2
20260905135010 93 314 1.7 4.3 0.00 0.00 0.00 54 1017.2
20260905134543 92 137 1.7 2.6 0.00 0.00 0.00 100 1017.8
20260905134510 93 223 1.7 4.3 0.00 0.00 0.00 53 1017.4
20260905134304 92 265 1.7 4.3 0.00 0.00 0.00 55 1016.3
20260905134009 92 341 1.7 2.6 0.00 0.00 0.00 53 1017.4
20260905133803 93 46 0.9 2.6 0.00 0.00 0.00 54 1016.3
20260905133514 92 223 1.7 2.6 0.00 0.00 0.00 54 1017.4
20260905133303 92 277 0.9 2.6 0.00 0.00 0.00 54 1016.3
20260905133041 91 38 0.9 3.5 0.00 0.00 0.00 100 1017.8
20260905133008 92 331 1.7 3.5 0.00 0.00 0.00 53 1017.4
20260905132512 91 321 0.9 3.5 0.00 0.00 0.00 54 1017.4
20260905132305 91 311 2.6 2.6 0.00 0.00 0.00 53 1016.4
20260905132008 91 338 1.7 3.5 0.00 0.00 0.00 55 1017.5
20260905131803 91 43 0.9 2.6 0.00 0.00 0.00 55 1016.4
20260905131558 90 26 0.9 2.6 0.00 0.00 0.00 100 1018.1
20260905131522 91 289 1.7 3.5 0.00 0.00 0.00 54 1017.5
20260905131303 91 24 1.7 2.6 0.00 0.00 0.00 53 1016.5
20260905131009 91 341 0.9 3.5 0.00 0.00 0.00 55 1017.6
20260905130511 90 32 1.7 5.2 0.00 0.00 0.00 54 1017.6
20260905130303 90 333 0.9 6.1 0.00 0.00 0.00 55 1016.6
20260905130044 90 61 1.7 3.5 0.00 0.00 0.00 100 1018.2
20260905130007 90 76 2.6 5.2 0.00 0.00 0.00 57 1017.7
20260905125803 90 102 0.9 1.7 0.00 0.00 0.00 56 1016.7
20260905125738 90 54 1.7 3.5 0.00 0.00 0.00 56 1017.7
20260905125306 90 334 1.7 4.3 0.00 0.00 0.00 57 1016.7
20260905125237 89 10 0.9 2.6 0.00 0.00 0.00 59 1017.7
20260905124804 89 14 0.9 1.7 0.00 0.00 0.00 58 1016.7
20260905124552 89 51 0.9 2.6 0.00 0.00 0.00 100 1018.4
20260905124509 89 45 0.9 2.6 0.00 0.00 0.00 59 1017.7
20260905124303 89 292 1.7 2.6 0.00 0.00 0.00 60 1016.8
20260905124009 89 1 1.7 2.6 0.00 0.00 0.00 61 1017.8
20260905123803 89 39 0.9 2.6 0.00 0.00 0.00 60 1016.9
20260905123510 88 20 1.7 2.6 0.00 0.00 0.00 61 1017.9
20260905123304 88 307 1.7 2.6 0.00 0.00 0.00 60 1017.0
20260905123056 88 26 0.9 1.7 0.00 0.00 0.00 100 1018.5
20260905123007 88 23 1.7 2.6 0.00 0.00 0.00 61 1017.9
20260905122803 88 39 1.7 2.6 0.00 0.00 0.00 61 1017.1
20260905122508 88 35 1.7 3.5 0.00 0.00 0.00 62 1018.0
20260905122306 88 21 1.7 2.6 0.00 0.00 0.00 62 1017.2
20260905122008 88 104 1.7 3.5 0.00 0.00 0.00 61 1018.0
20260905121953 88 72 0.9 2.6 0.00 0.00 0.00 62 1018.0
20260905121803 88 35 1.7 2.6 0.00 0.00 0.00 62 1017.2
20260905121542 88 316 0.9 1.7 0.00 0.00 0.00 100 1018.7
20260905121303 88 34 0.9 2.6 0.00 0.00 0.00 62 1017.3
20260905121007 88 341 1.7 2.6 0.00 0.00 0.00 62 1018.1
20260905120803 88 18 0.9 2.6 0.00 0.00 0.00 62 1017.4
20260905120744 88 1 0.9 2.6 0.00 0.00 0.00 63 1018.1
20260905120304 88 72 0.9 2.6 0.00 0.00 0.00 63 1017.5
20260905120232 88 1 1.7 2.6 0.00 0.00 0.00 63 1018.2
20260905120045 87 336 0.9 1.7 0.00 0.00 0.00 100 1018.9
20260905115804 88 321 0.9 2.6 0.00 0.00 0.00 64 1017.5
20260905115508 87 314 1.7 2.6 0.00 0.00 0.00 63 1018.3
20260905115306 87 347 0.9 2.6 0.00 0.00 0.00 65 1017.6
20260905115010 87 300 0.9 2.6 0.00 0.00 0.00 63 1018.3
20260905114804 87 308 0.9 2.6 0.00 0.00 0.00 65 1017.6
20260905114546 86 51 0.9 1.7 0.00 0.00 0.00 100 1019.1
20260905114509 87 296 1.7 2.6 0.00 0.00 0.00 63 1018.4
20260905114304 87 338 0.9 2.6 0.00 0.00 0.00 62 1017.7
20260905114006 87 283 1.7 2.6 0.00 0.00 0.00 63 1018.4
20260905113803 87 280 0.9 2.6 0.00 0.00 0.00 63 1017.7
20260905113508 86 223 0.9 2.6 0.00 0.00 0.00 63 1018.4
20260905113303 86 306 1.7 2.6 0.00 0.00 0.00 64 1017.7
20260905113043 86 9 0.9 1.7 0.00 0.00 0.00 100 1019.1
20260905113006 86 323 1.7 2.6 0.00 0.00 0.00 64 1018.5
20260905112804 86 264 0.9 2.6 0.00 0.00 0.00 64 1017.7
20260905112511 86 320 0.9 7.8 0.00 0.00 0.00 64 1018.5
20260905112305 86 282 0.9 2.6 0.00 0.00 0.00 64 1017.8
20260905112005 86 314 1.7 7.8 0.00 0.00 0.00 62 1018.5
20260905111803 85 313 1.7 2.6 0.00 0.00 0.00 63 1017.8
20260905111552 85 319 0.9 2.6 0.00 0.00 0.00 100 1019.2
20260905111519 85 324 1.7 3.5 0.00 0.00 0.00 62 1018.5
20260905111303 85 250 0.9 2.6 0.00 0.00 0.00 61 1017.9
20260905111006 85 223 0.9 2.6 0.00 0.00 0.00 60 1018.6
20260905110803 85 280 1.7 2.6 0.00 0.00 0.00 59 1017.9
20260905110508 85 303 0.9 1.7 0.00 0.00 0.00 61 1018.7
20260905110306 84 259 0.9 2.6 0.00 0.00 0.00 62 1018.0
20260905110046 84 247 0.9 0.9 0.00 0.00 0.00 100 1019.5
20260905110005 84 279 0.9 1.7 0.00 0.00 0.00 64 1018.7
20260905105803 84 244 0.9 1.7 0.00 0.00 0.00 66 1018.1
20260905105509 84 234 0.9 1.7 0.00 0.00 0.00 64 1018.9
20260905105237 83 319 0.9 1.7 0.00 0.00 0.00 68 1018.9
20260905104803 83 292 0.9 1.7 0.00 0.00 0.00 67 1018.2
20260905104545 82 329 0.9 1.7 0.00 0.00 0.00 100 1019.6
20260905104508 83 303 0.9 1.7 0.00 0.00 0.00 68 1018.9
20260905104304 83 245 0.9 1.7 0.00 0.00 0.00 67 1018.2
20260905104005 82 223 0.9 1.7 0.00 0.00 0.00 70 1018.9
20260905103803 82 267 0.9 1.7 0.00 0.00 0.00 69 1018.2
20260905103506 82 269 0.9 1.7 0.00 0.00 0.00 70 1019.0
20260905103303 82 250 0.9 2.6 0.00 0.00 0.00 70 1018.2
20260905103042 81 0 0.9 1.7 0.00 0.00 0.00 100 1019.7
20260905103005 82 327 0.9 2.6 0.00 0.00 0.00 71 1018.9
20260905102506 81 314 0.9 2.6 0.00 0.00 0.00 72 1018.9
20260905102306 81 305 0.9 2.6 0.00 0.00 0.00 73 1018.3
20260905102005 81 296 0.9 2.6 0.00 0.00 0.00 72 1019.0
20260905101803 81 343 0.9 1.7 0.00 0.00 0.00 73 1018.3
20260905101545 80 9 0.9 1.7 0.00 0.00 0.00 100 1019.7
20260905101506 80 314 0.9 1.7 0.00 0.00 0.00 75 1019.0
20260905101303 80 277 0.9 1.7 0.00 0.00 0.00 75 1018.3
20260905101004 80 314 0.9 2.6 0.00 0.00 0.00 76 1019.0
20260905100804 80 288 0.9 1.7 0.00 0.00 0.00 75 1018.3
20260905100505 79 324 0.9 2.6 0.00 0.00 0.00 76 1019.0
20260905100303 79 183 0.9 2.6 0.00 0.00 0.00 76 1018.4
20260905100045 79 221 0.9 1.7 0.00 0.00 0.00 100 1019.9
20260905100003 79 223 0.9 2.6 0.00 0.00 0.00 76 1019.0
20260905095804 79 253 0.9 2.6 0.00 0.00 0.00 77 1018.4
20260905095505 79 269 1.7 2.6 0.00 0.00 0.00 77 1019.1
20260905095004 78 45 0.9 1.7 0.00 0.00 0.00 78 1019.0
20260905094803 78 29 0.9 1.7 0.00 0.00 0.00 78 1018.4
20260905094542 77 0 0.0 0.9 0.00 0.00 0.00 100 1019.8
20260905094505 78 331 0.0 1.7 0.00 0.00 0.00 80 1019.0
20260905094303 78 224 0.0 0.9 0.00 0.00 0.00 80 1018.4
20260905094004 77 223 0.9 1.7 0.00 0.00 0.00 81 1019.1
20260905093803 77 20 0.9 1.7 0.00 0.00 0.00 81 1018.5
20260905093506 76 223 0.0 1.7 0.00 0.00 0.00 81 1019.2
20260905093459 76 269 0.0 1.7 0.00 0.00 0.00 81 1019.1
20260905093303 76 87 0.0 1.7 0.00 0.00 0.00 81 1018.5
20260905093043 75 68 0.0 0.9 0.00 0.00 0.00 100 1019.9
20260905092505 75 72 0.9 1.7 0.00 0.00 0.00 82 1019.2
20260905092306 75 317 0.0 1.7 0.00 0.00 0.00 82 1018.4
20260905092005 75 178 0.0 1.7 0.00 0.00 0.00 82 1019.1
20260905091803 75 198 0.9 1.7 0.00 0.00 0.00 82 1018.5
20260905091546 74 44 0.0 1.7 0.00 0.00 0.00 100 1020.0
20260905091505 75 16 0.0 1.7 0.00 0.00 0.00 82 1019.2
20260905091304 74 24 0.9 1.7 0.00 0.00 0.00 82 1018.5
20260905091003 74 337 0.9 1.7 0.00 0.00 0.00 84 1019.2
20260905090457 73 223 0.9 1.7 0.00 0.00 0.00 82 1019.2
20260905090304 73 161 0.0 1.7 0.00 0.00 0.00 82 1018.5
20260905090045 73 265 0.9 1.7 0.00 0.00 0.00 100 1019.9
20260905085935 73 178 0.9 3.5 0.00 0.00 0.00 82 1019.2
20260905085803 73 325 0.9 2.6 0.00 0.00 0.00 81 1018.4
20260905085432 73 269 0.9 3.5 0.00 0.00 0.00 83 1019.1
20260905085423 73 292 1.7 2.6 0.00 0.00 0.00 88 1019.1
20260905085305 73 325 0.9 2.6 0.00 0.00 0.00 83 1018.4
20260905084803 73 34 0.9 1.7 0.00 0.00 0.00 88 1018.4
20260905084600 72 330 0.0 1.7 0.00 0.00 0.00 100 1019.9
20260905084432 72 45 0.9 2.6 0.00 0.00 0.00 89 1019.1
20260905084303 72 52 0.9 1.7 0.00 0.00 0.00 89 1018.4
20260905084153 72 309 0.9 2.6 0.00 0.00 0.00 89 1019.1
20260905083803 72 353 0.9 2.6 0.00 0.00 0.00 89 1018.4
20260905083417 71 303 1.7 2.6 0.00 0.00 0.00 91 1019.1
20260905083303 71 308 0.9 2.6 0.00 0.00 0.00 91 1018.4
20260905083049 71 9 0.9 1.7 0.00 0.00 0.00 100 1019.8
20260905082919 71 319 0.9 1.7 0.00 0.00 0.00 92 1019.0
20260905082414 71 20 0.9 1.7 0.00 0.00 0.00 92 1019.0
20260905082307 70 13 0.9 1.7 0.00 0.00 0.00 93 1018.3
20260905081911 70 165 0.9 0.9 0.00 0.00 0.00 93 1019.0
20260905081547 69 0 0.0 0.9 0.00 0.00 0.00 100 1019.7
20260905081410 70 45 0.9 0.9 0.00 0.00 0.00 94 1019.0
20260905081303 70 20 0.0 1.7 0.00 0.00 0.00 94 1018.3
20260905080906 69 223 0.9 1.7 0.00 0.00 0.00 94 1018.9
20260905080804 69 149 0.9 0.9 0.00 0.00 0.00 94 1018.3
20260905080639 69 45 0.0 1.7 0.00 0.00 0.00 94 1018.9
20260905080304 69 105 0.9 1.7 0.00 0.00 0.00 94 1018.3
20260905080042 68 178 0.0 1.7 0.00 0.00 0.00 100 1019.7
20260905075902 69 63 0.0 1.7 0.00 0.00 0.00 94 1018.9
20260905075804 69 302 0.0 1.7 0.00 0.00 0.00 94 1018.3
20260905075634 68 1 0.9 1.7 0.00 0.00 0.00 95 1018.9
20260905075306 68 320 0.9 1.7 0.00 0.00 0.00 95 1018.3
20260905074902 68 314 0.9 1.7 0.00 0.00 0.00 95 1018.9
20260905074803 68 332 0.9 1.7 0.00 0.00 0.00 95 1018.3
20260905074552 67 265 0.0 0.9 0.00 0.00 0.00 100 1019.7
20260905074409 67 206 0.9 1.7 0.00 0.00 0.00 95 1018.9
20260905074405 67 314 0.9 1.7 0.00 0.00 0.00 95 1018.8
20260905074303 67 155 0.9 1.7 0.00 0.00 0.00 95 1018.3
20260905073403 67 1 0.9 1.7 0.00 0.00 0.00 95 1018.8
20260905073303 67 168 0.9 1.7 0.00 0.00 0.00 95 1018.2
20260905073047 66 0 0.9 0.9 0.00 0.00 0.00 100 1019.8
20260905072902 67 216 0.9 1.7 0.00 0.00 0.00 95 1019.0
20260905072803 67 229 0.9 1.7 0.00 0.00 0.00 95 1018.5
20260905072404 66 223 0.0 1.7 0.00 0.00 0.00 94 1018.9
20260905072306 66 34 0.0 0.9 0.00 0.00 0.00 94 1018.5
20260905071902 66 1 0.9 1.7 0.00 0.00 0.00 94 1018.9
20260905071803 66 204 0.9 1.7 0.00 0.00 0.00 94 1018.4
20260905071544 66 0 0.0 1.7 0.00 0.00 0.00 100 1019.7
20260905071407 66 1 0.9 2.6 0.00 0.00 0.00 94 1018.8
20260905071303 66 12 0.9 2.6 0.00 0.00 0.00 94 1018.4
20260905070902 66 172 0.9 3.5 0.00 0.00 0.00 94 1018.8
20260905070803 66 155 0.9 2.6 0.00 0.00 0.00 94 1018.5
20260905070404 66 161 0.9 3.5 0.00 0.00 0.00 94 1019.0
20260905070043 65 149 0.9 0.9 0.00 0.00 0.00 100 1019.8
20260905065902 66 142 0.9 1.7 0.00 0.00 0.00 94 1019.0
20260905065803 66 148 0.9 1.7 0.00 0.00 0.00 94 1018.5
20260905065635 66 178 0.0 1.7 0.00 0.00 0.00 94 1018.8
20260905065359 66 178 0.9 1.7 0.00 0.00 0.00 94 1018.5
20260905065306 66 259 0.9 1.7 0.00 0.00 0.00 94 1018.2
20260905064804 66 314 0.9 1.7 0.00 0.00 0.00 94 1018.1
20260905064542 65 247 0.0 0.9 0.00 0.00 0.00 100 1019.4
20260905064404 66 286 0.9 1.7 0.00 0.00 0.00 94 1018.7
20260905064132 66 45 0.0 0.9 0.00 0.00 0.00 94 1018.8
20260905063804 66 233 0.0 0.9 0.00 0.00 0.00 94 1018.4
20260905063403 66 45 0.0 1.7 0.00 0.00 0.00 94 1018.9
20260905063303 66 142 0.0 0.9 0.00 0.00 0.00 94 1018.6
20260905063049 65 0 0.0 0.9 0.00 0.00 0.00 100 1019.9
20260905062902 66 269 0.0 1.7 0.00 0.00 0.00 94 1019.1
20260905062803 66 233 0.9 1.7 0.00 0.00 0.00 94 1018.5
20260905062403 66 213 0.9 2.6 0.00 0.00 0.00 94 1019.0
20260905062130 66 223 0.9 2.6 0.00 0.00 0.00 94 1019.2
20260905061804 66 203 0.9 2.6 0.00 0.00 0.00 94 1018.8
20260905061548 65 146 0.0 1.7 0.00 0.00 0.00 100 1020.2
20260905061406 66 152 0.9 1.7 0.00 0.00 0.00 94 1019.3
20260905061304 66 229 0.9 1.7 0.00 0.00 0.00 94 1018.9
20260905060904 66 269 0.9 1.7 0.00 0.00 0.00 94 1019.4
20260905060406 66 213 0.9 1.7 0.00 0.00 0.00 94 1019.4
20260905060304 66 222 0.9 1.7 0.00 0.00 0.00 94 1018.9
20260905060043 65 178 0.0 1.7 0.00 0.00 0.00 100 1020.2
20260905055903 66 45 0.9 2.6 0.00 0.00 0.00 94 1019.4
20260905055803 66 66 0.9 2.6 0.00 0.00 0.00 94 1018.9
20260905055402 66 152 0.9 2.6 0.00 0.00 0.00 94 1019.3
20260905055306 66 171 0.9 1.7 0.00 0.00 0.00 94 1018.8
20260905055124 66 159 1.7 1.7 0.00 0.00 0.00 94 1019.2
20260905054803 66 166 0.9 1.7 0.00 0.00 0.00 94 1018.7
20260905054548 65 0 0.0 0.9 0.00 0.00 0.00 100 1019.8
20260905054402 66 206 0.9 1.7 0.00 0.00 0.00 94 1019.0
20260905054304 66 221 0.9 1.7 0.00 0.00 0.00 94 1018.5
20260905053902 66 269 0.0 1.7 0.00 0.00 0.00 94 1018.9
20260905053803 66 170 0.0 0.9 0.00 0.00 0.00 94 1018.5
20260905053402 66 45 0.0 1.7 0.00 0.00 0.00 94 1018.9
20260905053048 65 205 0.9 0.9 0.00 0.00 0.00 100 1019.7
20260905052902 66 234 0.9 2.6 0.00 0.00 0.00 94 1018.9
20260905052803 66 217 0.9 1.7 0.00 0.00 0.00 94 1018.2
20260905052403 66 45 0.9 2.6 0.00 0.00 0.00 94 1018.7
20260905051902 66 142 0.9 1.7 0.00 0.00 0.00 94 1018.9
20260905051853 66 241 0.9 2.6 0.00 0.00 0.00 94 1018.9
20260905051544 65 232 0.0 1.7 0.00 0.00 0.00 100 1019.6
20260905051303 66 70 0.9 1.7 0.00 0.00 0.00 94 1018.5
20260905050902 66 231 0.9 2.6 0.00 0.00 0.00 94 1018.8
20260905050804 66 157 0.9 2.6 0.00 0.00 0.00 94 1018.4
20260905050402 66 54 1.7 1.7 0.00 0.00 0.00 94 1018.6
20260905050127 66 206 0.9 1.7 0.00 0.00 0.00 94 1019.0
20260905050042 65 146 0.0 0.9 0.00 0.00 0.00 100 1019.8
20260905045850 66 206 0.9 1.7 0.00 0.00 0.00 94 1018.9
20260905045804 66 222 0.0 1.7 0.00 0.00 0.00 94 1018.4
20260905045305 66 149 0.9 0.9 0.00 0.00 0.00 94 1018.5
20260905044902 66 89 0.0 1.7 0.00 0.00 0.00 94 1018.9
20260905044803 66 137 0.0 0.9 0.00 0.00 0.00 94 1018.4
20260905044543 65 0 0.0 0.9 0.00 0.00 0.00 100 1019.7
20260905044402 66 314 0.0 1.7 0.00 0.00 0.00 94 1019.0
20260905044304 66 22 0.0 0.9 0.00 0.00 0.00 94 1018.6
20260905043902 66 178 0.9 0.9 0.00 0.00 0.00 94 1019.1
20260905043803 66 135 0.0 0.9 0.00 0.00 0.00 94 1018.6
20260905043404 66 28 0.0 0.9 0.00 0.00 0.00 94 1019.0
20260905043047 65 0 0.0 0.9 0.00 0.00 0.00 100 1020.0
20260905042902 66 45 0.0 1.7 0.00 0.00 0.00 94 1019.3
20260905042402 66 152 0.9 1.7 0.00 0.00 0.00 94 1019.1
20260905042306 66 63 0.9 1.7 0.00 0.00 0.00 94 1018.6
20260905041902 66 223 0.0 0.9 0.00 0.00 0.00 94 1019.0
20260905041803 66 19 0.0 0.9 0.00 0.00 0.00 94 1018.7
20260905041543 65 0 0.0 0.9 0.00 0.00 0.00 100 1019.8
20260905041402 66 314 0.0 1.7 0.00 0.00 0.00 94 1019.0
20260905041303 66 228 0.0 1.7 0.00 0.00 0.00 94 1018.7
20260905040902 66 89 0.9 1.7 0.00 0.00 0.00 94 1019.3
20260905040403 65 223 0.0 1.7 0.00 0.00 0.00 94 1019.4
20260905040304 66 191 0.9 0.9 0.00 0.00 0.00 94 1018.9
20260905040050 65 221 0.9 0.9 0.00 0.00 0.00 100 1020.2
20260905035902 66 1 0.9 1.7 0.00 0.00 0.00 94 1019.5
20260905035804 66 164 0.9 1.7 0.00 0.00 0.00 94 1019.1
20260905035403 66 197 0.0 0.9 0.00 0.00 0.00 94 1019.4
20260905035306 66 8 0.0 0.9 0.00 0.00 0.00 94 1018.9
20260905034902 66 223 0.0 0.9 0.00 0.00 0.00 94 1019.4
20260905034804 66 277 0.0 0.9 0.00 0.00 0.00 94 1019.0
20260905034549 65 265 0.0 0.9 0.00 0.00 0.00 100 1020.3
20260905034403 66 45 0.0 0.9 0.00 0.00 0.00 94 1019.5
20260905034303 66 156 0.0 0.9 0.00 0.00 0.00 94 1019.1
20260905033902 66 45 0.9 1.7 0.00 0.00 0.00 94 1019.6
20260905033803 66 219 0.0 0.9 0.00 0.00 0.00 94 1019.1
20260905033403 66 45 0.9 1.7 0.00 0.00 0.00 94 1019.5
20260905033304 66 167 0.9 1.7 0.00 0.00 0.00 94 1019.0
20260905033051 65 146 0.0 0.9 0.00 0.00 0.00 100 1020.3
20260905032902 66 45 0.0 1.7 0.00 0.00 0.00 94 1019.6
20260905032803 66 163 0.9 1.7 0.00 0.00 0.00 94 1019.0
20260905032626 66 168 0.9 1.7 0.00 0.00 0.00 94 1019.6
20260905032306 66 160 0.9 1.7 0.00 0.00 0.00 94 1019.1
20260905031902 66 152 0.0 0.9 0.00 0.00 0.00 94 1019.6
20260905031550 65 0 0.0 0.9 0.00 0.00 0.00 100 1020.4
20260905031403 66 269 0.0 1.7 0.00 0.00 0.00 94 1019.6
20260905030902 66 178 0.0 1.7 0.00 0.00 0.00 94 1019.5
20260905030803 66 123 0.0 1.7 0.00 0.00 0.00 94 1019.0
20260905030404 66 171 0.9 1.7 0.00 0.00 0.00 94 1019.4
20260905030304 66 136 0.9 1.7 0.00 0.00 0.00 94 1019.0
20260905030044 65 205 0.0 1.7 0.00 0.00 0.00 100 1020.3
20260905025903 66 1 0.9 1.7 0.00 0.00 0.00 94 1019.5
20260905025803 66 161 0.0 0.9 0.00 0.00 0.00 94 1019.0
20260905025402 66 89 0.9 1.7 0.00 0.00 0.00 94 1019.6
20260905025306 66 139 0.9 1.7 0.00 0.00 0.00 94 1019.1
20260905024903 66 223 0.0 0.9 0.00 0.00 0.00 93 1019.6
20260905024803 66 198 0.0 0.9 0.00 0.00 0.00 93 1019.2
20260905024606 65 265 0.0 0.9 0.00 0.00 0.00 100 1020.5
20260905024402 66 206 0.0 0.9 0.00 0.00 0.00 93 1019.6
20260905024303 66 204 0.0 0.9 0.00 0.00 0.00 93 1019.2
20260905023901 66 314 0.0 0.9 0.00 0.00 0.00 93 1019.6
20260905023803 66 55 0.0 0.9 0.00 0.00 0.00 93 1019.3
20260905023628 66 45 0.0 0.9 0.00 0.00 0.00 93 1019.9
20260905023045 65 0 0.0 0.9 0.00 0.00 0.00 100 1020.7
20260905022902 66 89 0.0 0.9 0.00 0.00 0.00 93 1020.0
20260905022804 66 128 0.0 0.9 0.00 0.00 0.00 93 1019.6
20260905022402 66 178 0.0 0.9 0.00 0.00 0.00 93 1020.1
20260905021901 66 1 0.0 0.9 0.00 0.00 0.00 93 1020.0
20260905021803 66 17 0.0 0.9 0.00 0.00 0.00 93 1019.7
20260905021632 66 89 0.0 0.9 0.00 0.00 0.00 93 1020.2
20260905021544 65 0 0.0 0.9 0.00 0.00 0.00 100 1020.9
20260905021304 66 127 0.0 0.9 0.00 0.00 0.00 93 1019.9
20260905020903 66 269 0.0 0.9 0.00 0.00 0.00 93 1020.2
20260905020804 66 104 0.0 0.9 0.00 0.00 0.00 93 1019.7
20260905020402 66 206 0.0 0.9 0.00 0.00 0.00 93 1020.1
20260905020303 66 89 0.9 0.9 0.00 0.00 0.00 93 1019.7
20260905020049 65 0 0.0 0.9 0.00 0.00 0.00 100 1020.9
20260905015902 66 178 0.0 0.9 0.00 0.00 0.00 93 1020.1
20260905015804 66 350 0.0 0.9 0.00 0.00 0.00 93 1019.8
20260905015403 66 269 0.0 0.9 0.00 0.00 0.00 93 1020.1
20260905015306 66 251 0.0 0.9 0.00 0.00 0.00 93 1019.8
20260905014902 66 269 0.0 0.9 0.00 0.00 0.00 93 1020.3
20260905014804 66 96 0.0 0.9 0.00 0.00 0.00 93 1019.9
20260905014545 65 0 0.0 0.9 0.00 0.00 0.00 100 1021.0
20260905014404 66 89 0.0 0.9 0.00 0.00 0.00 93 1020.4
20260905014304 66 288 0.0 0.9 0.00 0.00 0.00 93 1020.0
20260905013903 66 206 0.0 0.9 0.00 0.00 0.00 93 1020.5
20260905013401 66 152 0.0 0.9 0.00 0.00 0.00 93 1020.5
20260905013303 66 164 0.0 0.9 0.00 0.00 0.00 93 1020.1
20260905013051 65 0 0.0 0.9 0.00 0.00 0.00 100 1021.2
20260905012902 66 178 0.0 0.9 0.00 0.00 0.00 93 1020.4
20260905012803 66 218 0.9 0.9 0.00 0.00 0.00 93 1019.9
20260905012402 66 1 0.0 0.9 0.00 0.00 0.00 93 1020.4
20260905012306 66 113 0.0 0.9 0.00 0.00 0.00 93 1020.1
20260905012127 66 269 0.0 0.9 0.00 0.00 0.00 93 1020.6
20260905011806 66 169 0.9 0.9 0.00 0.00 0.00 93 1020.1
20260905011552 66 0 0.0 0.9 0.00 0.00 0.00 100 1021.1
20260905011402 66 314 0.9 0.9 0.00 0.00 0.00 93 1020.4
20260905011304 66 217 0.9 0.9 0.00 0.00 0.00 93 1019.9
20260905010902 66 223 0.0 0.9 0.00 0.00 0.00 93 1020.5
20260905010803 66 235 0.9 0.9 0.00 0.00 0.00 93 1020.2
20260905010401 66 223 0.0 0.9 0.00 0.00 0.00 93 1020.6
20260905010044 66 196 0.0 0.9 0.00 0.00 0.00 100 1021.6
20260905005903 66 269 0.0 0.9 0.00 0.00 0.00 93 1020.7
20260905005803 66 239 0.0 0.9 0.00 0.00 0.00 92 1020.3
20260905005402 66 223 0.0 0.9 0.00 0.00 0.00 92 1020.7
20260905004902 66 1 0.0 0.9 0.00 0.00 0.00 92 1020.8
20260905004803 66 299 0.0 0.9 0.00 0.00 0.00 92 1020.3
20260905004559 66 265 0.0 0.9 0.00 0.00 0.00 100 1021.6
20260905004403 66 178 0.0 1.7 0.00 0.00 0.00 92 1020.8
20260905004304 66 3 0.0 0.9 0.00 0.00 0.00 92 1020.3
20260905003902 66 28 0.0 1.7 0.00 0.00 0.00 92 1020.8
20260905003803 66 47 0.9 1.7 0.00 0.00 0.00 92 1020.4
20260905003402 66 178 0.0 1.7 0.00 0.00 0.00 92 1020.9
20260905003348 66 63 0.9 1.7 0.00 0.00 0.00 92 1020.7
20260905003303 66 50 0.9 1.7 0.00 0.00 0.00 92 1020.4
20260905003048 66 68 0.9 1.7 0.00 0.00 0.00 100 1021.6
20260905002803 66 45 0.9 1.7 0.00 0.00 0.00 92 1020.4
20260905002402 66 1 0.0 0.9 0.00 0.00 0.00 92 1021.0
20260905002306 66 67 0.0 0.9 0.00 0.00 0.00 92 1020.6
20260905001903 66 63 0.9 0.9 0.00 0.00 0.00 92 1021.1
20260905001545 66 0 0.0 0.9 0.00 0.00 0.00 100 1021.9
20260905001402 67 1 0.0 0.9 0.00 0.00 0.00 92 1021.1
20260905001126 67 45 0.0 0.9 0.00 0.00 0.00 92 1021.3